Weather in Kryvyi Rih

Ukraine / Dnipropetrovsk Region     47°54′37″N   33°23′30″E
temp.,
°C
wind,
m/s
gust,
m/s
humid.,
%
clouds,
%
prec.,
mm/h
press.,
hPa
HPBL,
m
17 october, sun
sun1700:00+11nne485093 0.0 1017200
03:00+11nne51052100 0.0 1017306
06:00+11nne4953100 0.0 1017310
09:00+11n3752100 0.0 1018265
12:00+11n4652100 0.0 1018291
15:00+12nne3651100 0.0 1017343
18:00+12n3560100 0.0 1018224
21:00+11n3670100 0.0 1018249
18 october, mon
mon1800:00+11nnw366999 0.0 1019264
03:00+9nnw367320 0.0 1019155
06:00+7nnw34785 0.0 1019103
09:00+8nnw3469100 0.0 1020218
12:00+12nw344981 0.0 1020885
15:00+13nw454198 0.0 10191338
18:00+11nw3647100 0.0 1019444
21:00+10wnw3452100 0.0 1020119
19 october, tue
tue1900:00+9wnw3754100 0.0 1020301
03:00+8wsw2362100 0.0 1018142
06:00+9wsw3663100 0.0 1017275
09:00+9wsw5770100 0.3 10161028
12:00+8nnw2386100 2.6 1016496
15:00+8n71080100 3.0 10191043
18:00+8nnw712545 0.1 1022714
21:00+6nw512625 0.1 1025469
20 october, wed
wed2000:00+5nw511715 0.0 1026354
03:00+3nw49795 0.0 1027253
06:00+3nw388029 0.0 1028220
09:00+4nnw366684 0.0 1030303
12:00+8nw23495 0.0 10301096
15:00+10w23405 0.0 10281267
18:00+8wsw234596 0.0 1028342
21:00+7ssw35515 0.0 1027127
21 october, thu
thu2100:00+6ssw375519 0.0 1027186
03:00+4s375978 0.0 1026182
06:00+4s4968100 0.0 1025250
09:00+6s5116310 0.0 1024347
12:00+12ssw710485 0.0 1022930
15:00+16ssw710355 0.0 10201318
18:00+13ssw71254100 0.0 1019618
21:00+11ssw61370100 0.0 1019706